Driggs, ID

11:53 AM MST on December 08, 2016 (GMT -0700)
Driggs

Weather History for KDIJ - August, 2013

Change the Weather History Date:

Monday, August 5, 2013

  Actual Average (KJAC) Record (KJAC)
Temperature  
Mean Temperature 67 °F -  
Max Temperature 88 °F 80 °F 93 °F (1961)
Min Temperature 46 °F 41 °F 27 °F (1980)
Cooling Degree Days 2    
Growing Degree Days 17 (Base 50)    
Moisture  
Dew Point 30 °F    
Average Humidity 28    
Maximum Humidity 58    
Minimum Humidity 7    
Precipitation  
Precipitation 0.00 in - - ()
Sea Level Pressure  
Sea Level Pressure 29.87 in    
Wind  
Wind Speed 6 mph (SSW)    
Max Wind Speed 20 mph    
Max Gust Speed 26 mph    
Visibility 10 miles    
Events      
Averages and records for this station are not official NWS values.
T = Trace of Precipitation, MM = Missing Value Source: NWS Daily Summary

Daily Weather History Graph

Daily Weather History Graph

Search for Another Location

Airport or City:

Trip Planner

Search our weather history database for the weather conditions in past years. The results will help you decide how hot, cold, wet, or windy it might be!

Date:

Astronomy

Aug. 05, 2013 Rise Set
Actual Time 6:17 AM MDT 8:41 PM MDT
Civil Twilight 5:45 AM MDT 9:14 PM MDT
Nautical Twilight 5:05 AM MDT 9:54 PM MDT
Astronomical Twilight 4:20 AM MDT 10:38 PM MDT
Moon 5:16 AM MDT (8/5) 7:43 PM MDT (8/5)
Length of Visible Light 15h 28m
Length of Day
14h 24m
Waning Crescent, 1% of the Moon is Illuminated
Aug 5
Waning Crescent
Aug 6
New
Aug 14
First Quarter
Aug 20
Full
Aug 28
Last Quarter

Hourly Weather History & Observations

Time (MDT) Temp. Dew Point Humidity Pressure Visibility Wind Dir Wind Speed Gust Speed Precip Events Conditions
12:56 AM 52.0 °F 32.9 °F 48% 29.92 in 10.0 mi Calm Calm - N/A   Clear
1:56 AM 50.9 °F 34.0 °F 52% 29.92 in 10.0 mi East 5.8 mph - N/A   Clear
2:56 AM 54.9 °F 32.0 °F 42% 29.90 in 10.0 mi ESE 3.5 mph - N/A   Clear
3:56 AM 52.0 °F 28.0 °F 40% 29.90 in 10.0 mi East 6.9 mph - N/A   Clear
4:56 AM 52.0 °F 28.0 °F 40% 29.90 in 10.0 mi East 5.8 mph - N/A   Clear
5:56 AM 46.9 °F 32.9 °F 58% 29.93 in 10.0 mi Calm Calm - N/A   Clear
6:56 AM 50.0 °F 34.0 °F 54% 29.93 in 10.0 mi WSW 3.5 mph - N/A   Clear
7:56 AM 57.9 °F 34.0 °F 41% 29.93 in 10.0 mi Calm Calm - N/A   Clear
8:56 AM 65.8 °F 32.0 °F 28% 29.95 in 10.0 mi Calm Calm - N/A   Clear
9:56 AM 75.9 °F 36.9 °F 24% 29.92 in 10.0 mi Variable 3.5 mph - N/A   Clear
10:56 AM 81.0 °F 30.0 °F 16% 29.92 in 10.0 mi SSW 10.4 mph - N/A   Clear
11:56 AM 83.8 °F 26.1 °F 12% 29.91 in 10.0 mi SSW 13.8 mph - N/A   Clear
12:56 PM 84.9 °F 32.9 °F 15% 29.90 in 10.0 mi SW 11.5 mph - N/A   Clear
1:56 PM 86.9 °F 27.1 °F 11% 29.87 in 10.0 mi SW 10.4 mph 23.0 mph N/A   Clear
2:56 PM 88.0 °F 17.1 °F 7% 29.84 in 10.0 mi West 19.6 mph 24.2 mph N/A   Clear
3:56 PM 88.9 °F 16.2 °F 7% 29.82 in 10.0 mi WSW 15.0 mph 21.9 mph N/A   Clear
4:56 PM 88.0 °F 19.0 °F 8% 29.81 in 10.0 mi WSW 16.1 mph 26.5 mph N/A   Clear
5:56 PM 86.9 °F 23.0 °F 10% 29.82 in 10.0 mi WSW 18.4 mph - N/A   Clear
6:56 PM 83.8 °F 28.0 °F 13% 29.81 in 10.0 mi West 9.2 mph - N/A   Clear
7:56 PM 77.9 °F 31.1 °F 18% 29.80 in 10.0 mi SSW 12.7 mph - N/A   Clear
8:56 PM 68.0 °F 36.9 °F 32% 29.82 in 10.0 mi SE 6.9 mph - N/A   Clear
9:56 PM 64.9 °F 34.0 °F 32% 29.80 in 10.0 mi SSE 6.9 mph - N/A   Clear
10:56 PM 63.0 °F 34.0 °F 34% 29.80 in 10.0 mi SSE 10.4 mph - N/A   Clear
11:56 PM 61.0 °F 34.0 °F 36% 29.79 in 10.0 mi SSE 9.2 mph - N/A   Clear